�v������,���r���O(���x),�����t���O,���r���O(���x),�����t���O,��1(���x),�����t���O,��2���x),�����t���O,�������x,�����t���O
4/1/2003 0:00,24.3,1,53.3,1,24.7,1,24.2,1,12.7,1
4/1/2003 0:15,24.3,1,53.6,1,24.6,1,24.2,1,12.8,1
4/1/2003 0:30,24.2,1,53,1,24.5,1,24.2,1,13,1
4/1/2003 0:45,24.2,1,52.6,1,24.5,1,24.2,1,13.1,1
4/1/2003 1:00,24.1,1,52.3,1,24.4,1,24.2,1,13.3,1
4/1/2003 1:15,24,1,52.2,1,24.3,1,24.2,1,13.4,1
4/1/2003 1:30,23.9,1,51.7,1,24.2,1,24.2,1,13.6,1
4/1/2003 1:45,23.9,1,51.4,1,24.1,1,24.1,1,13.7,1
4/1/2003 2:00,23.9,1,51,1,24.1,1,24.1,1,13.9,1
4/1/2003 2:15,23.8,1,50.8,1,24,1,24.1,1,14,1
4/1/2003 2:30,23.7,1,50.5,1,23.9,1,24,1,14.2,1
4/1/2003 2:45,23.7,1,50.2,1,23.9,1,23.9,1,14.3,1
4/1/2003 3:00,23.6,1,49.9,1,23.8,1,23.9,1,14.5,1
4/1/2003 3:15,23.5,1,49.7,1,23.7,1,23.8,1,14.6,1
4/1/2003 3:30,23.5,1,49.2,1,23.6,1,23.8,1,14.7,1
4/1/2003 3:45,23.5,1,48.9,1,23.6,1,23.7,1,14.9,1
4/1/2003 4:00,23.4,1,48.8,1,23.5,1,23.7,1,15,1
4/1/2003 4:15,23.3,1,48.6,1,23.5,1,23.6,1,15.2,1
4/1/2003 4:30,23.2,1,48.5,1,23.4,1,23.6,1,15.3,1
4/1/2003 4:45,23.2,1,48.1,1,23.3,1,23.5,1,15.5,1
4/1/2003 5:00,23.2,1,47.8,1,23.3,1,23.4,1,15.6,1
4/1/2003 5:15,23.1,1,47.7,1,23.2,1,23.4,1,15.8,1
4/1/2003 5:30,23,1,47.4,1,23.1,1,23.3,1,15.9,1
4/1/2003 5:45,22.9,1,47.3,1,23.1,1,23.2,1,16,1
4/1/2003 6:00,22.8,1,47.3,1,23,1,23.1,1,14.2,1
4/1/2003 6:15,22.9,1,47.2,1,23,1,23,1,14.3,1
4/1/2003 6:30,22.9,1,46.8,1,22.9,1,22.9,1,14.4,1
4/1/2003 6:45,22.9,1,47.2,1,22.9,1,22.8,1,14.5,1
4/1/2003 7:00,22.9,1,47.2,1,22.9,1,22.8,1,14.7,1
4/1/2003 7:15,22.9,1,47.6,1,22.9,1,22.8,1,12.6,1
4/1/2003 7:30,23,1,47.3,1,23,1,22.7,1,12.8,1
4/1/2003 7:45,23,1,47.1,1,23,1,22.7,1,12.9,1
4/1/2003 8:00,23.1,1,47,1,23.1,1,22.7,1,13.1,1
4/1/2003 8:15,23.2,1,47.3,1,23.1,1,22.7,1,12.7,1
4/1/2003 8:30,23.1,1,47.5,1,23.2,1,22.7,1,12.8,1
4/1/2003 8:45,23.1,1,47.3,1,23.2,1,22.7,1,12.9,1
4/1/2003 9:00,23.2,1,47.4,1,23.3,1,22.7,1,13.1,1
4/1/2003 9:15,23.2,1,47.3,1,23.3,1,22.8,1,13.2,1
4/1/2003 9:30,23.3,1,47.4,1,23.4,1,22.8,1,13.4,1
4/1/2003 9:45,23.3,1,47.5,1,23.4,1,22.9,1,13.5,1
4/1/2003 10:00,23.3,1,47.5,1,23.5,1,22.9,1,13.6,1
4/1/2003 10:15,23.4,1,47.5,1,23.5,1,23,1,13.8,1
4/1/2003 10:30,23.4,1,47.6,1,23.5,1,23.1,1,13.9,1
4/1/2003 10:45,23.4,1,47.5,1,23.6,1,23.1,1,14,1
4/1/2003 11:00,23.5,1,47.6,1,23.6,1,23.2,1,14.2,1
4/1/2003 11:15,23.5,1,47.6,1,23.7,1,23.3,1,14.3,1
4/1/2003 11:30,23.5,1,47.7,1,23.7,1,23.4,1,14.4,1
4/1/2003 11:45,23.6,1,47.6,1,23.8,1,23.4,1,14.6,1
4/1/2003 12:00,23.6,1,47.6,1,23.8,1,23.5,1,14.7,1
4/1/2003 12:15,23.6,1,47.6,1,23.8,1,23.6,1,14.9,1
4/1/2003 12:30,23.7,1,47.6,1,23.9,1,23.6,1,15,1
4/1/2003 12:45,23.7,1,47.5,1,23.9,1,23.7,1,15.1,1
4/1/2003 13:00,23.7,1,47.5,1,24,1,23.8,1,15.3,1
4/1/2003 13:15,23.8,1,47.5,1,24,1,23.9,1,15.4,1
4/1/2003 13:30,23.8,1,47.4,1,24,1,23.9,1,15.6,1
4/1/2003 13:45,23.8,1,47.4,1,24.1,1,24,1,15.7,1
4/1/2003 14:00,23.9,1,47.3,1,24.1,1,24.1,1,15.9,1
4/1/2003 14:15,23.9,1,47.2,1,24.1,1,24.2,1,16,1
4/1/2003 14:30,23.9,1,47.1,1,24.1,1,24.2,1,16.1,1
4/1/2003 14:45,23.9,1,47.1,1,24.2,1,24.3,1,16.3,1
4/1/2003 15:00,23.9,1,46.9,1,24.2,1,24.3,1,16.4,1
4/1/2003 15:15,23.9,1,46.9,1,24.2,1,24.3,1,16.5,1
4/1/2003 15:30,23.9,1,46.8,1,24.2,1,24.4,1,16.6,1
4/1/2003 15:45,23.9,1,46.7,1,24.2,1,24.4,1,16.7,1
4/1/2003 16:00,23.9,1,46.6,1,24.2,1,24.4,1,16.9,1
4/1/2003 16:15,23.9,1,46.4,1,24.1,1,24.4,1,17,1
4/1/2003 16:30,23.9,1,46.4,1,24.1,1,24.3,1,17.1,1
4/1/2003 16:45,23.9,1,46.3,1,24,1,24.3,1,17.2,1
4/1/2003 17:00,23.8,1,46.1,1,24,1,24.2,1,17.3,1
4/1/2003 17:15,23.8,1,46,1,23.9,1,24.2,1,17.4,1
4/1/2003 17:30,23.7,1,45.8,1,23.9,1,24.1,1,17.5,1
4/1/2003 17:45,23.7,1,45.7,1,23.8,1,24,1,17.6,1
4/1/2003 18:00,23.6,1,45.7,1,23.7,1,24,1,17.7,1
4/1/2003 18:15,23.6,1,45.7,1,23.7,1,23.9,1,17.8,1
4/1/2003 18:30,23.5,1,45.7,1,23.6,1,23.8,1,17.9,1
4/1/2003 18:45,23.5,1,45.6,1,23.5,1,23.7,1,17.9,1
4/1/2003 19:00,23.5,1,45.6,1,23.5,1,23.6,1,18,1
4/1/2003 19:15,23.4,1,45.5,1,23.4,1,23.6,1,18.1,1
4/1/2003 19:30,23.4,1,45.7,1,23.3,1,23.5,1,18.2,1
4/1/2003 19:45,23.3,1,45.4,1,23.3,1,23.4,1,18.3,1
4/1/2003 20:00,23.2,1,45.5,1,23.2,1,23.3,1,18.4,1
4/1/2003 20:15,23.2,1,45.5,1,23.2,1,23.2,1,18.4,1
4/1/2003 20:30,23.1,1,45.3,1,23.1,1,23.1,1,18.5,1
4/1/2003 20:45,23.1,1,45.3,1,23.1,1,23.1,1,18.6,1
4/1/2003 21:00,23,1,45.3,1,23,1,22.9,1,18.6,1
4/1/2003 21:15,23,1,45.3,1,22.9,1,22.9,1,18.7,1
4/1/2003 21:30,22.9,1,45.3,1,22.9,1,22.8,1,18.7,1
4/1/2003 21:45,22.9,1,45.2,1,22.9,1,22.7,1,18.8,1
4/1/2003 22:00,22.8,1,45.2,1,22.8,1,22.6,1,18.9,1
4/1/2003 22:15,22.8,1,45.2,1,22.7,1,22.5,1,18.9,1
4/1/2003 22:30,22.8,1,45.2,1,22.8,1,22.5,1,19,1
4/1/2003 22:45,22.8,1,45.2,1,22.8,1,22.4,1,19,1
4/1/2003 23:00,22.8,1,45.1,1,22.8,1,22.3,1,19.1,1
4/1/2003 23:15,22.9,1,45,1,22.8,1,22.2,1,19.1,1
4/1/2003 23:30,22.8,1,44.9,1,22.8,1,22.2,1,19.2,1
4/1/2003 23:45,22.9,1,44.7,1,22.8,1,22.1,1,19.2,1
4/2/2003 0:00,22.9,1,44.4,1,22.8,1,22,1,14.9,1
4/2/2003 0:15,22.9,1,44.4,1,22.8,1,21.9,1,15,1
4/2/2003 0:30,22.9,1,44.4,1,22.8,1,21.9,1,15.1,1
4/2/2003 0:45,22.9,1,44.5,1,22.8,1,21.8,1,14,1
4/2/2003 1:00,22.9,1,44.6,1,22.8,1,21.7,1,14.1,1
4/2/2003 1:15,22.9,1,44.5,1,22.7,1,21.7,1,13.8,1
4/2/2003 1:30,22.8,1,44.3,1,22.7,1,21.6,1,13.9,1
4/2/2003 1:45,22.7,1,44.2,1,22.6,1,21.6,1,14.1,1
4/2/2003 2:00,22.6,1,44.1,1,22.5,1,21.5,1,14.2,1
4/2/2003 2:15,22.6,1,44.2,1,22.5,1,21.5,1,14.3,1
4/2/2003 2:30,22.5,1,44,1,22.4,1,21.4,1,14.4,1
4/2/2003 2:45,22.4,1,44.1,1,22.4,1,21.4,1,14.5,1
4/2/2003 3:00,22.4,1,44.1,1,22.3,1,21.4,1,14.6,1
4/2/2003 3:15,22.3,1,44.1,1,22.2,1,21.3,1,14.7,1
4/2/2003 3:30,22.3,1,43.9,1,22.2,1,21.2,1,14.9,1
4/2/2003 3:45,22.2,1,44,1,22.1,1,21.2,1,15,1
4/2/2003 4:00,22.1,1,44,1,22.1,1,21.1,1,15.1,1
4/2/2003 4:15,22.1,1,43.9,1,22,1,21.1,1,15.2,1
4/2/2003 4:30,22,1,43.9,1,22,1,21,1,15.4,1
4/2/2003 4:45,22,1,43.9,1,21.9,1,21,1,15.5,1
4/2/2003 5:00,21.9,1,43.9,1,21.9,1,20.9,1,15.6,1
4/2/2003 5:15,21.9,1,43.9,1,21.9,1,20.8,1,15.8,1
4/2/2003 5:30,21.8,1,44,1,21.8,1,20.8,1,15.9,1
4/2/2003 5:45,21.7,1,44,1,21.8,1,20.7,1,16,1
4/2/2003 6:00,21.7,1,43.9,1,21.7,1,20.6,1,16.1,1
4/2/2003 6:15,21.7,1,43.9,1,21.7,1,20.5,1,16.2,1
4/2/2003 6:30,21.6,1,44,1,21.6,1,20.5,1,16.3,1
4/2/2003 6:45,21.5,1,44,1,21.6,1,20.4,1,16.4,1
4/2/2003 7:00,21.5,1,44,1,21.6,1,20.3,1,16.5,1
4/2/2003 7:15,21.4,1,43.9,1,21.5,1,20.3,1,16.6,1
4/2/2003 7:30,21.4,1,43.9,1,21.5,1,20.2,1,16.7,1
4/2/2003 7:45,21.3,1,44.3,1,21.4,1,20.1,1,16.8,1
4/2/2003 8:00,21.3,1,44.5,1,21.4,1,20.1,1,16.9,1
4/2/2003 8:15,21.3,1,44.9,1,21.4,1,20.1,1,17,1
4/2/2003 8:30,21.3,1,44.7,1,21.3,1,20.1,1,14.2,1
4/2/2003 8:45,21.2,1,44.6,1,21.3,1,20.1,1,14.3,1
4/2/2003 9:00,21.2,1,44.6,1,21.2,1,20,1,14.4,1
4/2/2003 9:15,21.2,1,44.5,1,21.2,1,20,1,14.5,1
4/2/2003 9:30,21.1,1,44.4,1,21.1,1,20,1,14.6,1
4/2/2003 9:45,21.1,1,44.5,1,21.1,1,19.9,1,14.7,1
4/2/2003 10:00,21.1,1,44.5,1,21,1,19.9,1,14.8,1
4/2/2003 10:15,21,1,44.5,1,21,1,19.9,1,14.9,1
4/2/2003 10:30,21,1,44.7,1,21,1,19.8,1,15,1
4/2/2003 10:45,21,1,44.6,1,20.9,1,19.8,1,15.1,1
4/2/2003 11:00,20.9,1,44.5,1,20.9,1,19.8,1,15.3,1
4/2/2003 11:15,20.9,1,44.5,1,20.8,1,19.7,1,15.4,1
4/2/2003 11:30,20.8,1,44.7,1,20.8,1,19.7,1,15.5,1
4/2/2003 11:45,20.8,1,44.6,1,20.8,1,19.7,1,15.6,1
4/2/2003 12:00,20.8,1,44.7,1,20.7,1,19.7,1,15.8,1
4/2/2003 12:15,20.7,1,44.7,1,20.7,1,19.6,1,15.9,1
4/2/2003 12:30,20.7,1,44.7,1,20.7,1,19.6,1,16,1
4/2/2003 12:45,20.7,1,44.8,1,20.6,1,19.6,1,16.1,1
4/2/2003 13:00,20.6,1,44.8,1,20.6,1,19.6,1,16.2,1
4/2/2003 13:15,20.6,1,44.8,1,20.6,1,19.5,1,16.3,1
4/2/2003 13:30,20.6,1,44.9,1,20.5,1,19.5,1,16.4,1
4/2/2003 13:45,20.5,1,44.8,1,20.5,1,19.5,1,16.5,1
4/2/2003 14:00,20.5,1,44.9,1,20.5,1,19.5,1,16.6,1
4/2/2003 14:15,20.5,1,44.9,1,20.4,1,19.5,1,16.6,1
4/2/2003 14:30,20.4,1,44.9,1,20.4,1,19.4,1,16.7,1
4/2/2003 14:45,20.4,1,45,1,20.4,1,19.4,1,16.8,1
4/2/2003 15:00,20.4,1,45,1,20.3,1,19.4,1,16.9,1
4/2/2003 15:15,20.3,1,45,1,20.3,1,19.3,1,17,1
4/2/2003 15:30,20.3,1,45.1,1,20.3,1,19.3,1,17,1
4/2/2003 15:45,20.3,1,45,1,20.3,1,19.3,1,17.1,1
4/2/2003 16:00,20.2,1,45.1,1,20.2,1,19.3,1,17.2,1
4/2/2003 16:15,20.2,1,45.2,1,20.2,1,19.2,1,17.2,1
4/2/2003 16:30,20.2,1,45.3,1,20.2,1,19.2,1,17.3,1
4/2/2003 16:45,20.1,1,45.8,1,20.2,1,19.2,1,17.3,1
4/2/2003 17:00,20.1,1,46.4,1,20.2,1,19.2,1,14.4,1
4/2/2003 17:15,20,1,46.5,1,20.2,1,19.1,1,14.5,1
4/2/2003 17:30,20,1,46.5,1,20.3,1,19.1,1,14.6,1
4/2/2003 17:45,20,1,46.7,1,20.3,1,19.1,1,14.7,1
4/2/2003 18:00,20,1,46.7,1,20.3,1,19.1,1,14.8,1
4/2/2003 18:15,20,1,46.9,1,20.3,1,19.1,1,14,1
4/2/2003 18:30,20,1,47.4,1,20.3,1,19.1,1,14,1
4/2/2003 18:45,20,1,48.5,1,20.4,1,19.1,1,14.2,1
4/2/2003 19:00,20,1,48.9,1,20.5,1,19.1,1,14.2,1
4/2/2003 19:15,20,1,49.8,1,20.6,1,19.1,1,14.3,1
4/2/2003 19:30,20,1,49.5,1,20.6,1,19.1,1,14.4,1
4/2/2003 19:45,20,1,48.8,1,20.6,1,19.1,1,14.5,1
4/2/2003 20:00,20,1,48.7,1,20.6,1,19.1,1,14.6,1
4/2/2003 20:15,20,1,48.9,1,20.6,1,19,1,14.3,1
4/2/2003 20:30,20,1,48.9,1,20.5,1,19,1,14.4,1
4/2/2003 20:45,20,1,48.9,1,20.6,1,19,1,13.9,1
4/2/2003 21:00,20,1,48.7,1,20.6,1,19,1,13.8,1
4/2/2003 21:15,20,1,49,1,20.6,1,19,1,13.8,1
4/2/2003 21:30,20.1,1,52.8,1,20.7,1,19,1,13.9,1
4/2/2003 21:45,20.1,1,51.6,1,20.7,1,19,1,13.8,1
4/2/2003 22:00,20.1,1,49.5,1,20.7,1,19,1,13.8,1
4/2/2003 22:15,20.1,1,49.2,1,20.7,1,19,1,13.9,1
4/2/2003 22:30,20.1,1,48.9,1,20.7,1,18.9,1,14,1
4/2/2003 22:45,20.1,1,49.3,1,20.8,1,18.9,1,14.1,1
4/2/2003 23:00,20.1,1,49.3,1,20.8,1,18.8,1,14.2,1
4/2/2003 23:15,20.2,1,50.2,1,20.7,1,18.8,1,14,1
4/2/2003 23:30,20.2,1,49.8,1,20.7,1,18.8,1,13.9,1
4/2/2003 23:45,20.3,1,50.2,1,20.6,1,18.8,1,13.9,1
4/3/2003 0:00,20.4,1,51.4,1,20.6,1,18.8,1,14.1,1
4/3/2003 0:15,20.4,1,51.5,1,20.5,1,18.8,1,14.2,1
4/3/2003 0:30,20.4,1,52,1,20.5,1,18.8,1,14.2,1
4/3/2003 0:45,20.4,1,52.3,1,20.5,1,18.8,1,14.3,1
4/3/2003 1:00,20.4,1,52.2,1,20.4,1,18.8,1,13.7,1
4/3/2003 1:15,20.5,1,52.3,1,20.4,1,18.8,1,13.8,1
4/3/2003 1:30,20.4,1,52.4,1,20.3,1,18.8,1,13.9,1
4/3/2003 1:45,20.4,1,52.3,1,20.2,1,18.8,1,14,1
4/3/2003 2:00,20.4,1,52.2,1,20.2,1,18.8,1,14.1,1
4/3/2003 2:15,20.4,1,52.1,1,20.1,1,18.9,1,14.2,1
4/3/2003 2:30,20.4,1,52.1,1,20.1,1,18.9,1,14.3,1
4/3/2003 2:45,20.4,1,52.1,1,20,1,18.9,1,14.4,1
4/3/2003 3:00,20.4,1,52,1,20,1,18.9,1,14.5,1
4/3/2003 3:15,20.4,1,51.7,1,20,1,18.9,1,14.6,1
4/3/2003 3:30,20.4,1,51.6,1,19.9,1,18.9,1,14.7,1
4/3/2003 3:45,20.3,1,51.3,1,19.9,1,18.9,1,14.7,1
4/3/2003 4:00,20.3,1,50.9,1,19.9,1,18.9,1,14.8,1
4/3/2003 4:15,20.3,1,50.7,1,19.9,1,18.9,1,14.9,1
4/3/2003 4:30,20.3,1,50.4,1,19.9,1,18.8,1,15,1
4/3/2003 4:45,20.2,1,50.1,1,19.9,1,18.8,1,15.1,1
4/3/2003 5:00,20.2,1,49.8,1,19.9,1,18.8,1,15.2,1
4/3/2003 5:15,20.2,1,49.6,1,19.8,1,18.7,1,15.3,1
4/3/2003 5:30,20.2,1,49.4,1,19.8,1,18.7,1,15.4,1
4/3/2003 5:45,20.1,1,49.2,1,19.8,1,18.7,1,15.5,1
4/3/2003 6:00,20.1,1,49,1,19.8,1,18.7,1,15.6,1
4/3/2003 6:15,20.1,1,48.7,1,19.8,1,18.6,1,15.7,1
4/3/2003 6:30,20.1,1,48.6,1,19.7,1,18.6,1,15.8,1
4/3/2003 6:45,20.1,1,48.6,1,19.7,1,18.6,1,14.1,1
4/3/2003 7:00,20.1,1,49,1,19.8,1,18.6,1,14.2,1
4/3/2003 7:15,20.1,1,49.8,1,19.9,1,18.5,1,13.5,1
4/3/2003 7:30,20.1,1,50,1,19.9,1,18.5,1,13.5,1
4/3/2003 7:45,20.2,1,49.9,1,20.1,1,18.5,1,13.3,1
4/3/2003 8:00,20.3,1,49.8,1,20.2,1,18.5,1,13.2,1
4/3/2003 8:15,20.3,1,49.6,1,20.3,1,18.6,1,13.2,1
4/3/2003 8:30,20.2,1,49.6,1,20.3,1,18.6,1,13.3,1
4/3/2003 8:45,20.2,1,49.6,1,20.4,1,18.7,1,13.4,1
4/3/2003 9:00,20.3,1,49.5,1,20.4,1,18.8,1,13.5,1
4/3/2003 9:15,20.3,1,49.6,1,20.5,1,18.9,1,13.6,1
4/3/2003 9:30,20.4,1,49.4,1,20.6,1,19,1,13.7,1
4/3/2003 9:45,20.4,1,49.4,1,20.7,1,19.1,1,13.8,1
4/3/2003 10:00,20.5,1,49.6,1,20.8,1,19.2,1,13.9,1
4/3/2003 10:15,20.5,1,49.6,1,20.9,1,19.3,1,14,1
4/3/2003 10:30,20.6,1,49.7,1,21.1,1,19.5,1,14.1,1
4/3/2003 10:45,20.7,1,50,1,21.2,1,19.6,1,14.2,1
4/3/2003 11:00,20.9,1,49.4,1,21.3,1,19.8,1,14.3,1
4/3/2003 11:15,21,1,49.9,1,21.4,1,19.9,1,14.3,1
4/3/2003 11:30,21.1,1,49.7,1,21.6,1,20,1,13.2,1
4/3/2003 11:45,21.1,1,49.9,1,21.7,1,20.2,1,13.3,1
4/3/2003 12:00,21.1,1,50,1,21.7,1,20.4,1,13.4,1
4/3/2003 12:15,21.1,1,50.1,1,21.8,1,20.5,1,13.4,1
4/3/2003 12:30,21.2,1,50.1,1,21.9,1,20.6,1,13.5,1
4/3/2003 12:45,21.2,1,50.4,1,22,1,20.8,1,13.6,1
4/3/2003 13:00,21.3,1,50.3,1,22.2,1,20.9,1,13.2,1
4/3/2003 13:15,21.4,1,50.2,1,22.2,1,21,1,13.3,1
4/3/2003 13:30,21.5,1,50.1,1,22.2,1,21.1,1,13.4,1
4/3/2003 13:45,21.5,1,49.8,1,22.2,1,21.2,1,13.6,1
4/3/2003 14:00,21.5,1,49.8,1,22.2,1,21.3,1,13.7,1
4/3/2003 14:15,21.5,1,49.7,1,22.2,1,21.3,1,13.8,1
4/3/2003 14:30,21.5,1,49.6,1,22.2,1,21.4,1,13.9,1
4/3/2003 14:45,21.5,1,49.4,1,22.2,1,21.5,1,14,1
4/3/2003 15:00,21.6,1,49.4,1,22.2,1,21.5,1,14.1,1
4/3/2003 15:15,21.6,1,49.3,1,22.2,1,21.6,1,14.2,1
4/3/2003 15:30,21.6,1,49.3,1,22.2,1,21.6,1,14.3,1
4/3/2003 15:45,21.6,1,49.1,1,22.2,1,21.7,1,14.4,1
4/3/2003 16:00,21.6,1,49,1,22.2,1,21.7,1,14.5,1
4/3/2003 16:15,21.7,1,49,1,22.2,1,21.8,1,14.6,1
4/3/2003 16:30,21.7,1,48.8,1,22.2,1,21.8,1,14.7,1
4/3/2003 16:45,21.7,1,48.7,1,22.2,1,21.7,1,14.8,1
4/3/2003 17:00,21.7,1,48.6,1,22.2,1,21.7,1,14.9,1
4/3/2003 17:15,21.6,1,48.5,1,22.1,1,21.7,1,14.9,1
4/3/2003 17:30,21.6,1,48.4,1,22.1,1,21.7,1,15.1,1
4/3/2003 17:45,21.5,1,48.3,1,22.1,1,21.6,1,15.2,1
4/3/2003 18:00,21.5,1,48.3,1,22,1,21.6,1,15.3,1
4/3/2003 18:15,21.4,1,47.3,1,21.9,1,21.5,1,15.4,1
4/3/2003 18:30,21.5,1,47.6,1,22,1,21.5,1,15.5,1
4/3/2003 18:45,21.6,1,48,1,22,1,21.4,1,15.6,1
4/3/2003 19:00,21.6,1,48,1,22,1,21.4,1,15.7,1
4/3/2003 19:15,21.6,1,47.9,1,22.1,1,21.3,1,14.4,1
4/3/2003 19:30,21.6,1,47.6,1,22.1,1,21.3,1,13,1
4/3/2003 19:45,21.6,1,49.7,1,22.1,1,21.2,1,13.1,1
4/3/2003 20:00,21.5,1,49.7,1,22.1,1,21.2,1,13.3,1
4/3/2003 20:15,21.4,1,49.6,1,22.1,1,21.1,1,13.4,1
4/3/2003 20:30,21.3,1,49.4,1,22.1,1,21.1,1,13.5,1
4/3/2003 20:45,21.3,1,49.4,1,22.1,1,21,1,13.6,1
4/3/2003 21:00,21.3,1,49.2,1,22,1,21,1,13.2,1
4/3/2003 21:15,21.3,1,49.3,1,22,1,20.9,1,12.9,1
4/3/2003 21:30,21.2,1,49.3,1,21.9,1,20.9,1,13,1
4/3/2003 21:45,21.2,1,48.7,1,21.8,1,20.8,1,13.1,1
4/3/2003 22:00,21.2,1,48.7,1,21.7,1,20.7,1,13.2,1
4/3/2003 22:15,21.2,1,48.6,1,21.7,1,20.6,1,13.4,1
4/3/2003 22:30,21.2,1,48.5,1,21.7,1,20.5,1,13.5,1
4/3/2003 22:45,21.1,1,48.4,1,21.6,1,20.4,1,13.4,1
4/3/2003 23:00,21.2,1,50,1,21.6,1,20.3,1,13.4,1
4/3/2003 23:15,21.2,1,48.8,1,21.6,1,20.3,1,13.1,1
4/3/2003 23:30,21.2,1,48.8,1,21.6,1,20.2,1,13.2,1
4/3/2003 23:45,21.2,1,48.4,1,21.6,1,20.2,1,13.3,1
4/4/2003 0:00,21.1,1,48,1,21.5,1,20.1,1,13.4,1
4/4/2003 0:15,21.1,1,47.6,1,21.5,1,20.1,1,13.5,1
4/4/2003 0:30,21,1,47.5,1,21.4,1,20,1,13.6,1
4/4/2003 0:45,21,1,47.3,1,21.4,1,20,1,13.7,1
4/4/2003 1:00,20.9,1,46.9,1,21.3,1,19.9,1,13.1,1
4/4/2003 1:15,20.9,1,46.4,1,21.2,1,19.9,1,13.2,1
4/4/2003 1:30,20.8,1,46.1,1,21.1,1,19.8,1,13.3,1
4/4/2003 1:45,20.7,1,46,1,21,1,19.8,1,13.4,1
4/4/2003 2:00,20.6,1,45.8,1,20.9,1,19.7,1,13.5,1
4/4/2003 2:15,20.6,1,45.6,1,20.8,1,19.7,1,13.6,1
4/4/2003 2:30,20.5,1,45.6,1,20.7,1,19.6,1,13.7,1
4/4/2003 2:45,20.4,1,45.5,1,20.6,1,19.5,1,13.8,1
4/4/2003 3:00,20.3,1,45.5,1,20.6,1,19.5,1,13.9,1
4/4/2003 3:15,20.2,1,45.4,1,20.5,1,19.4,1,14,1
4/4/2003 3:30,20.1,1,45.4,1,20.4,1,19.4,1,14.1,1
4/4/2003 3:45,20.1,1,45.2,1,20.3,1,19.3,1,14.2,1
4/4/2003 4:00,20,1,45,1,20.2,1,19.2,1,14.3,1
4/4/2003 4:15,19.9,1,44.9,1,20.1,1,19.1,1,14.3,1
4/4/2003 4:30,19.9,1,44.8,1,20,1,19.1,1,14.4,1
4/4/2003 4:45,19.8,1,44.8,1,20,1,19,1,14.5,1
4/4/2003 5:00,19.7,1,44.7,1,19.9,1,18.9,1,14.6,1
4/4/2003 5:15,19.7,1,44.5,1,19.8,1,18.9,1,14.7,1
4/4/2003 5:30,19.7,1,44.4,1,19.8,1,18.8,1,14.7,1
4/4/2003 5:45,19.6,1,44.4,1,19.7,1,18.7,1,14.8,1
4/4/2003 6:00,19.6,1,44.4,1,19.6,1,18.7,1,14.9,1
4/4/2003 6:15,19.5,1,44.3,1,19.6,1,18.6,1,15,1
4/4/2003 6:30,19.4,1,44.3,1,19.5,1,18.5,1,15,1
4/4/2003 6:45,19.4,1,44.2,1,19.5,1,18.4,1,15.1,1
4/4/2003 7:00,19.4,1,44.4,1,19.4,1,18.4,1,13.7,1
4/4/2003 7:15,19.4,1,45.1,1,19.4,1,18.3,1,13.8,1
4/4/2003 7:30,19.5,1,45.4,1,19.5,1,18.3,1,13.9,1
4/4/2003 7:45,19.6,1,45.7,1,19.6,1,18.3,1,14,1
4/4/2003 8:00,19.7,1,46,1,19.7,1,18.3,1,14.1,1
4/4/2003 8:15,19.7,1,46.1,1,19.8,1,18.3,1,13.1,1
4/4/2003 8:30,19.7,1,46.5,1,19.9,1,18.3,1,13.2,1
4/4/2003 8:45,19.8,1,46.5,1,20,1,18.4,1,13.3,1
4/4/2003 9:00,19.8,1,46.8,1,20.1,1,18.5,1,13.2,1
4/4/2003 9:15,19.8,1,47.4,1,20.2,1,18.6,1,13.3,1
4/4/2003 9:30,19.6,1,45.4,1,20,1,18.7,1,13.4,1
4/4/2003 9:45,19.7,1,47,1,20.1,1,18.8,1,13.5,1
4/4/2003 10:00,19.8,1,47.9,1,20.2,1,18.9,1,13.1,1
4/4/2003 10:15,19.9,1,49,1,20.4,1,19,1,13.2,1
4/4/2003 10:30,19.9,1,49.7,1,20.5,1,19.1,1,13.3,1
4/4/2003 10:45,20,1,49.8,1,20.7,1,19.4,1,13.4,1
4/4/2003 11:00,20.1,1,49.7,1,20.7,1,19.5,1,13.5,1
4/4/2003 11:15,20.2,1,49.8,1,20.8,1,19.6,1,13.6,1
4/4/2003 11:30,20.2,1,49.6,1,20.9,1,19.7,1,13.7,1
4/4/2003 11:45,20.3,1,50,1,20.9,1,19.9,1,13.8,1
4/4/2003 12:00,20.3,1,50,1,21,1,20,1,13.9,1
4/4/2003 12:15,20.4,1,49.8,1,21,1,20.2,1,14,1
4/4/2003 12:30,20.5,1,49.7,1,21.1,1,20.1,1,14.1,1
4/4/2003 12:45,20.6,1,49.7,1,21.2,1,20.3,1,14.2,1
4/4/2003 13:00,20.7,1,51.2,1,21.4,1,20.5,1,14.3,1
4/4/2003 13:15,20.8,1,51.4,1,21.5,1,20.6,1,14.4,1
4/4/2003 13:30,20.8,1,50.7,1,21.5,1,20.7,1,13.6,1
4/4/2003 13:45,20.9,1,50.5,1,21.6,1,20.9,1,13.7,1
4/4/2003 14:00,21,1,50.4,1,21.7,1,21,1,13.8,1
4/4/2003 14:15,21,1,50.4,1,21.8,1,21.1,1,13.4,1
4/4/2003 14:30,21.1,1,50.1,1,21.8,1,21.2,1,13.1,1
4/4/2003 14:45,21.2,1,50.1,1,21.9,1,21.3,1,13.2,1
4/4/2003 15:00,21.2,1,49.5,1,22,1,21.4,1,13,1
4/4/2003 15:15,21.2,1,49.8,1,22,1,21.4,1,13.1,1
4/4/2003 15:30,21.3,1,50,1,22.1,1,21.5,1,13.2,1
4/4/2003 15:45,21.3,1,49.7,1,22.1,1,21.5,1,13.3,1
4/4/2003 16:00,21.4,1,49.8,1,22.1,1,21.5,1,13.4,1
4/4/2003 16:15,21.4,1,49.8,1,22.2,1,21.5,1,13.5,1
4/4/2003 16:30,21.4,1,49.8,1,22.2,1,21.5,1,13.5,1
4/4/2003 16:45,21.4,1,50.4,1,22.2,1,21.5,1,13.6,1
4/4/2003 17:00,21.5,1,50.3,1,22.3,1,21.5,1,13.7,1
4/4/2003 17:15,21.5,1,50.1,1,22.3,1,21.5,1,13.8,1
4/4/2003 17:30,21.5,1,50.1,1,22.3,1,21.5,1,13.9,1
4/4/2003 17:45,21.5,1,50.1,1,22.4,1,21.5,1,13.9,1
4/4/2003 18:00,21.5,1,50.1,1,22.4,1,21.5,1,14,1
4/4/2003 18:15,21.5,1,50.2,1,22.4,1,21.5,1,14.1,1
4/4/2003 18:30,21.6,1,50.1,1,22.4,1,21.5,1,13.5,1
4/4/2003 18:45,21.6,1,50.1,1,22.4,1,21.5,1,13.6,1
4/4/2003 19:00,21.7,1,49.7,1,22.3,1,21.4,1,13.3,1
4/4/2003 19:15,21.7,1,49.4,1,22.3,1,21.4,1,13.1,1
4/4/2003 19:30,21.7,1,49.2,1,22.3,1,21.4,1,13,1
4/4/2003 19:45,21.7,1,49.1,1,22.3,1,21.3,1,13,1
4/4/2003 20:00,21.7,1,49.7,1,22.2,1,21.3,1,13.1,1
4/4/2003 20:15,21.7,1,49.3,1,22.2,1,21.3,1,13.1,1
4/4/2003 20:30,21.7,1,48.7,1,22.2,1,21.2,1,13.3,1
4/4/2003 20:45,21.7,1,49,1,22.1,1,21.2,1,13.4,1
4/4/2003 21:00,21.7,1,50.6,1,22.1,1,21.1,1,13.5,1
4/4/2003 21:15,21.7,1,51.4,1,22.1,1,21.1,1,13.1,1
4/4/2003 21:30,21.7,1,50.5,1,22.1,1,21.1,1,13.3,1
4/4/2003 21:45,21.7,1,50.5,1,22.1,1,21.1,1,13.4,1
4/4/2003 22:00,21.7,1,50.1,1,22.1,1,21,1,13.2,1
4/4/2003 22:15,21.6,1,49.8,1,22,1,21,1,13.2,1
4/4/2003 22:30,21.6,1,50.1,1,21.9,1,20.9,1,12.9,1
4/4/2003 22:45,21.6,1,51.1,1,21.9,1,20.8,1,12.9,1
4/4/2003 23:00,21.6,1,50.7,1,22,1,20.6,1,13,1
4/4/2003 23:15,21.7,1,50.5,1,22,1,20.6,1,13.1,1
4/4/2003 23:30,21.7,1,49.9,1,22,1,20.6,1,13.3,1
4/4/2003 23:45,21.7,1,49.7,1,21.9,1,20.6,1,13.4,1
4/5/2003 0:00,21.7,1,49.3,1,21.9,1,20.5,1,13.5,1
4/5/2003 0:15,21.7,1,49.1,1,21.8,1,20.5,1,13.6,1
4/5/2003 0:30,21.7,1,48.9,1,21.8,1,20.5,1,13.7,1
4/5/2003 0:45,21.7,1,48.9,1,21.7,1,20.5,1,13.8,1
4/5/2003 1:00,21.6,1,48.9,1,21.7,1,20.5,1,13.1,1
4/5/2003 1:15,21.6,1,48.5,1,21.7,1,20.5,1,13.2,1
4/5/2003 1:30,21.6,1,48,1,21.6,1,20.5,1,13.3,1
4/5/2003 1:45,21.5,1,47.8,1,21.5,1,20.5,1,13.4,1
4/5/2003 2:00,21.5,1,47.6,1,21.5,1,20.4,1,13.5,1
4/5/2003 2:15,21.5,1,47.5,1,21.4,1,20.3,1,13.6,1
4/5/2003 2:30,21.4,1,47.3,1,21.3,1,20.3,1,13.7,1
4/5/2003 2:45,21.4,1,47.2,1,21.2,1,20.3,1,13.8,1
4/5/2003 3:00,21.4,1,47,1,21.1,1,20.3,1,13.9,1
4/5/2003 3:15,21.3,1,46.9,1,21.1,1,20.3,1,14,1
4/5/2003 3:30,21.3,1,46.8,1,21,1,20.2,1,14.1,1
4/5/2003 3:45,21.3,1,46.7,1,20.9,1,20.2,1,14.2,1
4/5/2003 4:00,21.2,1,46.6,1,20.8,1,20.1,1,14.3,1
4/5/2003 4:15,21.2,1,46.7,1,20.8,1,20.1,1,14.4,1
4/5/2003 4:30,21.1,1,46.5,1,20.7,1,20,1,14.6,1
4/5/2003 4:45,21.1,1,46.4,1,20.7,1,20,1,14.7,1
4/5/2003 5:00,21.1,1,46.4,1,20.7,1,20,1,14.7,1
4/5/2003 5:15,21,1,46.2,1,20.6,1,19.9,1,14.8,1
4/5/2003 5:30,21,1,46.3,1,20.6,1,19.9,1,14.9,1
4/5/2003 5:45,21,1,46.2,1,20.5,1,19.8,1,15,1
4/5/2003 6:00,20.9,1,46.3,1,20.5,1,19.7,1,15.1,1
4/5/2003 6:15,20.8,1,46.3,1,20.5,1,19.7,1,15.2,1
4/5/2003 6:30,20.8,1,46.3,1,20.4,1,19.6,1,15.3,1
4/5/2003 6:45,20.7,1,46.4,1,20.4,1,19.6,1,15.4,1
4/5/2003 7:00,20.7,1,46.3,1,20.4,1,19.5,1,15.5,1
4/5/2003 7:15,20.6,1,46.4,1,20.3,1,19.4,1,15.6,1
4/5/2003 7:30,20.5,1,46.4,1,20.3,1,19.4,1,15.7,1
4/5/2003 7:45,20.5,1,46.3,1,20.3,1,19.3,1,15.8,1
4/5/2003 8:00,20.4,1,46.4,1,20.2,1,19.3,1,15.9,1
4/5/2003 8:15,20.3,1,46.6,1,20.2,1,19.2,1,15.9,1
4/5/2003 8:30,20.2,1,46.7,1,20.2,1,19.2,1,16,1
4/5/2003 8:45,20.2,1,47.2,1,20.1,1,19.1,1,16.1,1
4/5/2003 9:00,20.1,1,47.4,1,20.1,1,19.1,1,16.2,1
4/5/2003 9:15,20.2,1,47.9,1,20.1,1,19.1,1,13.5,1
4/5/2003 9:30,20.2,1,48.3,1,20.1,1,19,1,12.8,1
4/5/2003 9:45,20.1,1,48.3,1,20.2,1,18.9,1,12.9,1
4/5/2003 10:00,20.1,1,48.5,1,20.2,1,18.8,1,13.1,1
4/5/2003 10:15,20.1,1,48.7,1,20.2,1,18.7,1,13.2,1
4/5/2003 10:30,20,1,48.8,1,20.2,1,18.6,1,13.3,1
4/5/2003 10:45,20.1,1,48.9,1,20.3,1,18.5,1,13.4,1
4/5/2003 11:00,20,1,49,1,20.3,1,18.5,1,12.9,1
4/5/2003 11:15,19.9,1,48.7,1,20.3,1,18.4,1,12.8,1
4/5/2003 11:30,19.8,1,48.8,1,20.2,1,18.4,1,12.8,1
4/5/2003 11:45,19.8,1,48.7,1,20.2,1,18.3,1,12.9,1
4/5/2003 12:00,19.8,1,48.8,1,20.1,1,18.3,1,13.1,1
4/5/2003 12:15,19.7,1,48.7,1,20.1,1,18.2,1,13.1,1
4/5/2003 12:30,19.7,1,48.7,1,20.1,1,18.1,1,13.2,1
4/5/2003 12:45,19.7,1,48.7,1,20.1,1,18.1,1,13.3,1
4/5/2003 13:00,19.6,1,48.5,1,20.1,1,18,1,13.4,1
4/5/2003 13:15,19.6,1,48.5,1,20,1,18,1,13.5,1
4/5/2003 13:30,19.5,1,48.4,1,19.9,1,17.9,1,13.6,1
4/5/2003 13:45,19.5,1,48.4,1,19.9,1,17.9,1,13.7,1
4/5/2003 14:00,19.5,1,48.5,1,19.8,1,17.8,1,13,1
4/5/2003 14:15,19.5,1,48.7,1,19.8,1,17.8,1,13.1,1
4/5/2003 14:30,19.4,1,48.6,1,19.8,1,17.7,1,13.2,1
4/5/2003 14:45,19.4,1,48.6,1,19.8,1,17.7,1,12.8,1
4/5/2003 15:00,19.3,1,48.5,1,19.8,1,17.6,1,12.9,1
4/5/2003 15:15,19.3,1,48.5,1,19.7,1,17.6,1,12.9,1
4/5/2003 15:30,19.2,1,48.5,1,19.6,1,17.5,1,12.8,1
4/5/2003 15:45,19.2,1,48.2,1,19.6,1,17.5,1,12.9,1
4/5/2003 16:00,19.2,1,48.3,1,19.6,1,17.5,1,13,1
4/5/2003 16:15,19.1,1,48.2,1,19.6,1,17.4,1,13.1,1
4/5/2003 16:30,19.1,1,48.3,1,19.5,1,17.3,1,13.2,1
4/5/2003 16:45,19.1,1,49,1,19.5,1,17.3,1,13.3,1
4/5/2003 17:00,19.1,1,49.2,1,19.6,1,17.3,1,13.3,1
4/5/2003 17:15,19.1,1,49,1,19.6,1,17.2,1,13.4,1
4/5/2003 17:30,19.1,1,49.6,1,19.6,1,17.2,1,13.5,1
4/5/2003 17:45,19.1,1,49.8,1,19.6,1,17.2,1,13.6,1
4/5/2003 18:00,19.1,1,49.8,1,19.5,1,17.1,1,13.7,1
4/5/2003 18:15,19.1,1,49.7,1,19.5,1,17.1,1,13,1
4/5/2003 18:30,19,1,49.5,1,19.5,1,17.1,1,12.8,1
4/5/2003 18:45,19,1,49.3,1,19.4,1,17.1,1,12.8,1
4/5/2003 19:00,19,1,49.3,1,19.4,1,17,1,12.9,1
4/5/2003 19:15,19,1,49.3,1,19.4,1,17,1,13,1
4/5/2003 19:30,19,1,49.2,1,19.4,1,17,1,13.1,1
4/5/2003 19:45,19,1,49.3,1,19.4,1,17,1,12.7,1
4/5/2003 20:00,19.2,1,48.9,1,19.4,1,16.9,1,12.7,1
4/5/2003 20:15,19.2,1,48.7,1,19.4,1,16.9,1,12.7,1
4/5/2003 20:30,19.1,1,48.6,1,19.4,1,16.9,1,12.8,1
4/5/2003 20:45,19.1,1,48.8,1,19.5,1,16.9,1,12.9,1
4/5/2003 21:00,19.1,1,48.8,1,19.5,1,16.9,1,12.6,1
4/5/2003 21:15,19.1,1,49,1,19.5,1,16.9,1,12.6,1
4/5/2003 21:30,19.1,1,49.5,1,19.5,1,16.8,1,12.7,1
4/5/2003 21:45,19.1,1,50.6,1,19.5,1,16.8,1,12.8,1
4/5/2003 22:00,19.1,1,52.2,1,19.5,1,16.8,1,12.9,1
4/5/2003 22:15,19.1,1,52.6,1,19.5,1,17,1,12.8,1
4/5/2003 22:30,19.1,1,51.3,1,19.4,1,17.1,1,12.8,1
4/5/2003 22:45,19.1,1,53.7,1,19.4,1,17.2,1,12.7,1
4/5/2003 23:00,19.2,1,52.2,1,19.4,1,17.2,1,12.7,1
4/5/2003 23:15,19.2,1,51.2,1,19.4,1,17.2,1,12.8,1
4/5/2003 23:30,19.2,1,51.5,1,19.4,1,17.1,1,12.9,1
4/5/2003 23:45,19.3,1,51.3,1,19.4,1,17.1,1,13,1